Home > Time Zones > World Clock > Weather > Serbia > Niš > Past weeks

Flag for Serbia Weather past 2 weeks in Niš, Serbia

Now
55 °F

Passing clouds.


Feels Like: 55 °F
Forecast: 40 / 52 °F
Wind: 3 mph from North

Location: Nis Airport

Current Time: Mar 31, 2015 at 12:16:19 PM

Latest Report: Mar 31, 2015 at 12:00 PM


Visibility: N/A

Pressure: 29.92 "Hg

Humidity: 41%

Dew point: 32 °F

Location of NišLocation

Historic Weather in Niš — Graph

°F

Niš temperature yesterday

Maximum temperature yesterday: 59 °F (at 1:30 PM)
Minimum temperature yesterday: 32 °F (at 5:00 AM)
Average temperature yesterday: 46 °F

Past Weeks' High & Low Weather Summary

 TemperatureHumidityPressure
High68 °F (Mar 26, 2:00 PM)100% (Mar 20, 6:00 AM)30.51 "Hg (Mar 20, 6:00 AM)
Low25 °F (Mar 20, 3:00 AM)16% (Mar 21, 6:00 PM)29.62 "Hg (Mar 27, 12:30 PM)
Average47 °F63%30.03 "Hg
* Reported Mar 16 10:00 AM — Mar 31 11:00 AM, Niš, Weather by CustomWeather, © 2015

Note: Actual official high and low records may vary slightly from our data, if they occured in-between our weather recording intervals... More about our weather records

Advertising

Niš weather history for previous 24 hours

 ConditionsComfort  
Time TempWeatherWind HumidityBarometerVisibility
11:00 AM
Tue, Mar 31
52 °FPassing clouds.12 mph50%29.95 "HgN/A
10:30 AM52 °FPassing clouds.10 mph54%29.98 "HgN/A
10:00 AM50 °FPassing clouds.13 mph58%29.98 "HgN/A
9:30 AM50 °FPassing clouds.13 mph54%29.95 "HgN/A
9:00 AM48 °FPassing clouds.13 mph66%29.98 "HgN/A
8:30 AM46 °FPassing clouds.8 mph71%29.95 "HgN/A
8:00 AM45 °FScattered clouds.2 mph76%29.95 "HgN/A
7:30 AM45 °FScattered clouds.2 mph71%29.95 "HgN/A
7:00 AM45 °FPassing clouds.8 mph71%29.95 "HgN/A
6:30 AM45 °FPassing clouds.3 mph76%29.92 "HgN/A
6:00 AM45 °FPassing clouds.7 mph76%29.92 "HgN/A
5:30 AM45 °FPassing clouds.6 mph81%29.89 "HgN/A
5:00 AM45 °FPassing clouds.12 mph81%29.89 "HgN/A
4:30 AM45 °FPassing clouds.3 mph81%29.86 "HgN/A
4:00 AM45 °FPassing clouds.3 mph81%29.86 "HgN/A
3:30 AM45 °FPassing clouds.12 mph81%29.86 "HgN/A
3:00 AM45 °FPassing clouds.10 mph81%29.86 "HgN/A
2:30 AM45 °FLight rain. Passing clouds.9 mph87%29.83 "HgN/A
2:00 AM45 °FSprinkles. Passing clouds.20 mph87%29.80 "HgN/A
1:30 AM48 °FLight rain. Passing clouds.20 mph87%29.80 "HgN/A
1:00 AM48 °FLight rain. Passing clouds.3 mph82%29.77 "HgN/A
12:30 AM46 °FPassing clouds.5 mph87%29.74 "HgN/A
12:00 AM48 °FLight rain. Passing clouds.5 mph82%29.74 "HgN/A
11:30 PM
Mon, Mar 30
48 °FLight rain. Passing clouds.5 mph82%29.74 "HgN/A
11:00 PM48 °FPassing clouds.1 mph82%29.71 "HgN/A
10:30 PM48 °FPassing clouds.1 mph82%29.71 "HgN/A
10:00 PM48 °FPassing clouds.1 mph82%29.71 "HgN/A
9:30 PM48 °FPassing clouds.2 mph82%29.71 "HgN/A
9:00 PM50 °FPassing clouds.3 mph76%29.71 "HgN/A
8:30 PM50 °FLight rain. Passing clouds.3 mph76%29.71 "HgN/A
8:00 PM50 °FLight rain. Passing clouds.3 mph76%29.68 "HgN/A
7:30 PM48 °FLight rain. Scattered clouds.5 mph82%29.68 "HgN/A
7:00 PM50 °FLight rain. Scattered clouds.5 mph76%29.68 "HgN/A
6:30 PM50 °FLight rain. Scattered clouds.6 mph76%29.68 "HgN/A
6:00 PM52 °FLight rain. Scattered clouds.6 mph77%29.68 "HgN/A
5:30 PM54 °FLight rain. Scattered clouds.7 mph67%29.68 "HgN/A
5:00 PM54 °FScattered clouds.6 mph72%29.65 "HgN/A
4:30 PM54 °FLight rain. Scattered clouds.3 mph72%29.68 "HgN/A
4:00 PM54 °FLight rain. Scattered clouds.3 mph72%29.68 "HgN/A
3:30 PM54 °FLight rain. Scattered clouds.3 mph72%29.68 "HgN/A
3:00 PM55 °FLight rain. Scattered clouds.3 mph63%29.68 "HgN/A
2:30 PM57 °FLight rain. Scattered clouds.6 mph51%29.68 "HgN/A
2:00 PM59 °FLight rain. Passing clouds.8 mph48%29.68 "HgN/A
1:30 PM59 °FPassing clouds.8 mph45%29.68 "HgN/A
1:00 PM57 °FPassing clouds.9 mph44%29.71 "HgN/A
12:30 PM57 °FPassing clouds.9 mph48%29.71 "HgN/A
12:00 PM57 °FPassing clouds.9 mph48%29.71 "HgN/A
Weather by CustomWeather, © 2015

See weather overviewHow to use our weather pages